Showing default

IRIDIUM 120, 42805

Orbit data source: Space-Track

IRIDIUM 120, 42805 is a payload satellite owned by Iridium (US) in LEO that was launched on Sun, 25 Jun 2017 UTC via an FALCON 9 launch vehicle from the Air Force Western Test Range (AFWTR). Payload-class satellites include a variety of spacecraft equipped with specific instruments for various scientific and technological missions. These include communications satellites like Starlink; space stations such as the ISS; scientific satellites like the Hubble; Earth observation satellites from companies like Planet Labs, Umbra, and HawkEye 360; GPS; miniature CubeSats for education and research; and military/defense satellites.

Loading next visibility...
Identifier
42805, 2017-039C
Orbit
LEO
Country
Flag of USUS
Related business
Manufacturer
OATK SSG Gilbert
Mission
Operational Commercial Communications
Bus & Motor
ELITEBUS, Unknown motor
Mass
860 kg wet, 700 kg dry
Launch date (UTC)
2017-06-25 (8 years ago)
Launch vehicle
FALCON 9
Launch site
Air Force Western Test Range (AFWTR)
Object type
Payload
Rocket body
Debris
Shape & HBR
Trap Box + 2 Pan, 4.8 m
Radar Cross Section
10.154 m², Large (>1 m²)

Expand to show TLE details & history
Last TLE update: 1 day ago

TLE from 1 day ago
0 IRIDIUM 120
1 42805U 17039C   25340.88221168  .00000348  00000-0  11704-3 0  9990
2 42805  86.3957  42.3523 0002362 104.6298 255.5160 14.34216140443619
Epoch: 2025-12-06T21:10Z
TLE epoch observation values (Epoch: 2025-12-06T21:10:23.089Z)
Latitude
0.00002°
Longitude
8.85252°
Altitude
781.147 km
Speed
7.463 km/s
True Right ascension
02h 49m 24s
True Declination
0° 00' 00"
Sunlit
Object was in full shadow at epoch
Visualization orbit readout
Latitude
Unknown
Longitude
Unknown
Altitude
Unknown
Speed
Unknown
Apparent Right ascension
Unknown
Apparent Declination
Unknown
Sunlit
N/A
Visualization observer readout
Local Sidereal Time
20:15:54
Azimuth
Unknown
Elevation
Unknown
Doppler factor
Unknown
Orbital elements
Apogee altitude
776.327 km
Perigee altitude
772.948 km
Semi-major axis
7,152.774 km
Eccentricity
0.00024
Inclination
86.3957°
RAAN
42.3523°
Arg. of periapsis
104.6298°
True anomaly
255.4898°
Mean anomaly
255.516°
Eccentric anomaly
255.5029°
Mean motion
3.58783 °/min
Orbital period
100.34 mins
BSTAR
0.00011704
Loading maneuver chart data...
Computing Atmospheric mass density...
Loading historical data...
Loading historical data...
Loading historical data...
Loading historical data...
Loading historical data...
Loading historical data...
Loading historical data...

Documentation

Showing up to 5 results
|